Flag for U.S.A. Weather past 2 weeks in New Bedford, Massachusetts, U.S.A.

Now
60 °F

Clear.


Feels Like: 60 °F
Forecast: 62 / 82 °F
Wind: 3 mph from Southwest

Location: New Bedford Regional Airport

Current Time: Aug 27, 2014 at 5:56:37 AM

Latest Report: Aug 27, 2014 at 4:53 AM


Visibility: 10 mi

Pressure: 30.01 "Hg

Humidity: 93%

Dew point: 58 °F

Location of New BedfordLocation

Historic Weather in New Bedford — Graph

°F

New Bedford temperature yesterday

Maximum temperature yesterday: 82 °F (at 12:53 PM)
Minimum temperature yesterday: 54 °F (at 5:53 AM)
Average temperature yesterday: 68 °F

Past Weeks' High & Low Weather Summary

 TemperatureHumidityPressure
High86 °F (Aug 25, 1:53 PM)100% (Aug 20, 6:53 AM)30.18 "Hg (Aug 20, 6:53 AM)
Low48 °F (Aug 19, 5:53 AM)40% (Aug 19, 3:53 PM)29.62 "Hg (Aug 13, 7:53 PM)
Average67 °F76%29.97 "Hg
* Reported Aug 12 3:53 AM — Aug 27 3:53 AM, New Bedford, Weather by CustomWeather, © 2014

Note: Actual official high and low records may vary slightly from our data, if they occured in-between our weather recording intervals... More about our weather records

Advertising

New Bedford weather history for previous 24 hours

 ConditionsComfort  
Time TempWeatherWind HumidityBarometerVisibility
3:53 AM
Aug 27
61 °FClear.3 mph97%30.01 "Hg10 mi
2:53 AM62 °FClear.5 mph96%30.03 "Hg10 mi
1:53 AM64 °FClear.6 mph97%30.04 "Hg10 mi
12:53 AM63 °FClear.5 mph93%30.06 "Hg10 mi
11:53 PM
Aug 26
64 °FClear.3 mph94%30.07 "Hg10 mi
10:53 PM64 °FClear.3 mph94%30.09 "Hg10 mi
9:53 PM64 °FClear.5 mph94%30.09 "Hg10 mi
8:53 PM64 °FClear.3 mph94%30.09 "Hg10 mi
7:53 PM68 °FSunny.7 mph73%30.08 "Hg10 mi
6:53 PM71 °FSunny.10 mph59%30.08 "Hg10 mi
5:53 PM74 °FSunny.9 mph60%30.09 "Hg10 mi
4:53 PM77 °FSunny.9 mph54%30.10 "Hg10 mi
3:53 PM79 °FSunny.10 mph52%30.11 "Hg10 mi
2:53 PM80 °FSunny.13 mph49%30.12 "Hg10 mi
1:53 PM81 °FSunny.13 mph51%30.13 "Hg10 mi
12:53 PM82 °FSunny.8 mph49%30.14 "Hg10 mi
11:53 AM80 °FSunny.No wind51%30.15 "Hg10 mi
10:53 AM77 °FSunny.No wind54%30.16 "Hg10 mi
9:53 AM74 °FSunny.5 mph60%30.17 "Hg10 mi
8:53 AM71 °FSunny.6 mph57%30.18 "Hg10 mi
7:53 AM64 °FSunny.3 mph90%30.17 "Hg10 mi
6:53 AM57 °FClear.No wind96%30.16 "Hg10 mi
5:53 AM54 °FClear.No wind100%30.15 "Hg10 mi
Weather by CustomWeather, © 2014

See weather overviewHow to use our weather pages